SM7CKM-1 Weather Reports


time (UTC)temp
F
wind
direction
speed
knots
gust
knots
rain 1hr
in
rain 24hr
in
rain mn
in
humidity
%
barometer
mb
20260507220841 43 147 2.6 3.5 0.00 0.00 0.00 43 1020.3
20260507215740 43 128 2.6 3.5 0.00 0.00 0.00 44 1020.2
20260507214640 43 131 1.7 2.6 0.00 0.00 0.00 45 1020.1
20260507213542 44 147 2.6 3.5 0.00 0.00 0.00 45 1019.9
20260507212441 44 146 2.6 4.3 0.00 0.00 0.00 46 1019.9
20260507211340 44 207 3.5 6.1 0.00 0.00 0.00 48 1019.6
20260507210240 44 133 2.6 6.1 0.00 0.00 0.00 50 1019.4
20260507204041 46 145 2.6 7.0 0.00 0.00 0.00 42 1019.4
20260507201840 47 102 3.5 5.2 0.00 0.00 0.00 43 1019.1
20260507200741 47 141 2.6 3.5 0.00 0.00 0.00 43 1019.1
20260507195641 48 134 3.5 7.0 0.00 0.00 0.00 43 1018.9
20260507194540 48 147 3.5 6.1 0.00 0.00 0.00 42 1018.9
20260507191241 50 185 4.3 7.0 0.00 0.00 0.00 41 1018.4
20260507190140 51 156 4.3 7.8 0.00 0.00 0.00 41 1018.4
20260507185040 52 115 6.1 11.3 0.00 0.00 0.00 40 1018.3
20260507183940 53 134 6.1 7.8 0.00 0.00 0.00 40 1018.1
20260507182841 54 157 6.1 9.6 0.00 0.00 0.00 38 1018.0
20260507181740 55 100 6.1 9.6 0.00 0.00 0.00 33 1017.8
20260507180640 57 184 0.9 1.7 0.00 0.00 0.00 30 1017.7
20260507175540 58 202 0.9 1.7 0.00 0.00 0.00 28 1017.3
20260507174439 58 302 1.7 2.6 0.00 0.00 0.00 22 1017.1
20260507171139 60 323 3.5 4.3 0.00 0.00 0.00 20 1016.9
20260507164940 60 317 2.6 4.3 0.00 0.00 0.00 20 1016.8
20260507163839 60 326 3.5 4.3 0.00 0.00 0.00 20 1016.7
20260507162739 61 299 3.5 6.1 0.00 0.00 0.00 20 1016.6
20260507161640 61 329 3.5 5.2 0.00 0.00 0.00 20 1016.8
20260507160540 61 326 3.5 6.1 0.00 0.00 0.00 20 1016.8
20260507155440 62 246 2.6 4.3 0.00 0.00 0.00 20 1016.9
20260507154340 61 315 2.6 4.3 0.00 0.00 0.00 20 1016.7
20260507153238 61 322 2.6 5.2 0.00 0.00 0.00 20 1016.7
20260507152139 61 336 3.5 4.3 0.00 0.00 0.00 20 1016.7
20260507151038 61 332 4.3 6.1 0.00 0.00 0.00 20 1016.5
20260507145938 61 339 4.3 6.1 0.00 0.00 0.00 22 1016.5
20260507144838 61 260 3.5 6.1 0.00 0.00 0.00 22 1016.6
20260507143739 60 322 5.2 9.6 0.00 0.00 0.00 22 1016.6
20260507142639 61 13 4.3 7.8 0.00 0.00 0.00 24 1016.6
20260507140438 61 142 1.7 6.1 0.00 0.00 0.00 24 1016.6
20260507135340 60 203 2.6 3.5 0.00 0.00 0.00 26 1016.5
20260507133139 60 45 4.3 6.1 0.00 0.00 0.00 30 1016.4
20260507132039 59 69 5.2 7.8 0.00 0.00 0.00 28 1016.5
20260507130938 59 75 4.3 4.3 0.00 0.00 0.00 30 1016.2
20260507125838 59 313 2.6 3.5 0.00 0.00 0.00 30 1016.2
20260507124739 58 298 3.5 7.0 0.00 0.00 0.00 30 1016.3
20260507122538 59 290 5.2 7.0 0.00 0.00 0.00 31 1016.3
20260507121438 58 336 5.2 7.0 0.00 0.00 0.00 31 1016.1
20260507120338 58 350 6.1 7.8 0.00 0.00 0.00 31 1016.0
20260507115237 58 346 5.2 7.0 0.00 0.00 0.00 32 1016.3
20260507114137 58 329 3.5 6.1 0.00 0.00 0.00 31 1016.2
20260507113039 57 335 4.3 6.1 0.00 0.00 0.00 32 1016.3
20260507111938 57 321 5.2 7.0 0.00 0.00 0.00 32 1016.4
20260507110837 57 329 5.2 7.8 0.00 0.00 0.00 32 1016.3
20260507104637 56 268 4.3 7.0 0.00 0.00 0.00 33 1016.2
20260507103537 57 8 5.2 7.0 0.00 0.00 0.00 34 1016.2
20260507102437 56 348 6.1 7.0 0.00 0.00 0.00 33 1016.2
20260507100237 55 338 3.5 5.2 0.00 0.00 0.00 34 1016.2
20260507095137 56 30 3.5 7.0 0.00 0.00 0.00 33 1016.2
20260507094037 56 347 3.5 5.2 0.00 0.00 0.00 34 1016.2
20260507092937 56 352 3.5 7.0 0.00 0.00 0.00 37 1016.1
20260507091837 56 217 3.5 6.1 0.00 0.00 0.00 38 1016.1
20260507090736 56 196 2.6 3.5 0.00 0.00 0.00 40 1016.1
20260507085637 55 298 3.5 7.0 0.00 0.00 0.00 40 1016.0
20260507084537 55 179 4.3 6.1 0.00 0.00 0.00 40 1016.2
20260507083436 54 334 5.2 7.0 0.00 0.00 0.00 42 1016.2
20260507082336 54 354 5.2 7.8 0.00 0.00 0.00 43 1016.0
20260507081236 53 335 6.1 7.0 0.00 0.00 0.00 45 1015.9
20260507080137 53 339 7.0 7.8 0.00 0.00 0.00 45 1015.9
20260507073936 52 344 6.1 7.8 0.00 0.00 0.00 48 1015.9
20260507072836 53 338 6.1 7.0 0.00 0.00 0.00 50 1015.5
20260507071738 51 331 7.0 9.6 0.00 0.00 0.00 50 1015.6
20260507070636 51 321 6.1 7.8 0.00 0.00 0.00 48 1015.7
20260507065537 52 350 5.2 7.0 0.00 0.00 0.00 50 1015.6
20260507063336 51 272 4.3 6.1 0.00 0.00 0.00 53 1015.7
20260507061136 50 273 4.3 6.1 0.00 0.00 0.00 53 1015.5
20260507060035 50 232 4.3 7.0 0.00 0.00 0.00 53 1015.3
20260507054935 49 213 3.5 3.5 0.00 0.00 0.00 56 1015.2
20260507052735 47 212 2.6 4.3 0.00 0.00 0.00 61 1015.0
20260507050535 44 138 1.7 2.6 0.00 0.00 0.00 82 1015.0
20260507045435 41 146 0.9 1.7 0.00 0.00 0.00 83 1014.9
20260507044335 37 144 0.9 1.7 0.00 0.00 0.00 82 1014.9
20260507043235 36 135 0.0 1.7 0.00 0.00 0.00 81 1014.9
20260507042135 35 0 0.0 0.0 0.00 0.00 0.00 81 1014.7
20260507041035 34 0 0.0 0.0 0.00 0.00 0.00 81 1014.6
20260507035935 34 0 0.0 0.0 0.00 0.00 0.00 80 1014.8
20260507034835 34 0 0.0 0.0 0.00 0.00 0.00 80 1014.5
20260507033735 34 0 0.0 0.0 0.00 0.00 0.00 80 1014.4
20260507031535 34 135 0.0 1.7 0.00 0.00 0.00 78 1014.5
20260507030436 34 0 0.0 0.0 0.00 0.00 0.00 77 1014.3
20260507025335 34 0 0.0 0.0 0.00 0.00 0.00 77 1014.2
20260507024234 34 0 0.0 0.0 0.00 0.00 0.00 76 1014.1
20260507023135 35 0 0.0 0.0 0.00 0.00 0.00 75 1014.1
20260507022034 35 135 0.0 0.9 0.00 0.00 0.00 75 1014.0
20260507020935 35 0 0.0 0.0 0.00 0.00 0.00 74 1014.1
20260507015834 36 0 0.0 0.0 0.00 0.00 0.00 74 1014.1
20260507014734 36 135 0.9 2.6 0.00 0.00 0.00 73 1014.1
20260507013634 36 135 0.9 1.7 0.00 0.00 0.00 72 1014.0
20260507012534 37 0 0.0 0.0 0.00 0.00 0.00 71 1013.9
20260507011435 37 0 0.0 0.0 0.00 0.00 0.00 71 1014.0
20260507010334 38 0 0.0 0.0 0.00 0.00 0.00 70 1014.0
20260507005234 38 0 0.0 0.0 0.00 0.00 0.00 69 1013.8
20260507004134 38 0 0.0 0.0 0.00 0.00 0.00 68 1013.7
20260507003034 39 0 0.0 0.0 0.00 0.00 0.00 67 1013.8
20260507001934 39 181 0.0 0.9 0.00 0.00 0.00 66 1013.6
20260507000835 40 181 0.0 1.7 0.00 0.00 0.00 65 1013.7
20260506235734 40 181 0.9 1.7 0.00 0.00 0.00 64 1013.8
20260506234635 40 181 0.0 0.9 0.00 0.00 0.00 63 1013.7
20260506233533 41 181 0.0 1.7 0.00 0.00 0.00 62 1013.7
20260506232434 42 181 0.9 1.7 0.00 0.00 0.00 61 1013.8
20260506230234 43 124 0.9 1.7 0.00 0.00 0.00 60 1013.9
20260506225133 43 131 1.7 2.6 0.00 0.00 0.00 60 1013.8
20260506224033 44 119 0.9 3.5 0.00 0.00 0.00 60 1013.6
20260506222933 44 165 0.9 2.6 0.00 0.00 0.00 59 1013.8
20260506221834 44 164 1.7 2.6 0.00 0.00 0.00 58 1013.6